Regional Weather Roundup
Issued by NWS

Home | Current Version | Previous Version | Text Only | Print | Product List | Glossary On
Versions: 1 2 3 4 5 6 7 8 9 10 11 12 13 14 15 16 17 18 19 20 21 22 23 24 25 26 27 28 29 30 31 32 33 34 35 36 37 38 39 40 41 42 43 44 45 46 47 48 49 50
000
ASUS45 KABQ 191210
RWRNM
NEW MEXICO REGIONAL WEATHER ROUNDUP
NATIONAL WEATHER SERVICE ALBUQUERQUE NM
600 AM MDT SAT AUG 19 2017

NOTE: "FAIR" MEANS FEW OR NO CLOUDS BELOW 12,000 FEET AGL WITH NO
       SIGNIFICANT WEATHER OR OBSTRUCTIONS TO VISION.

      THIS PRODUCT IS RELEASED AS TWO VERSIONS.  ONE VERSION NEAR
      THE TOP OF THE HOUR CONTAINING PRELIMINARY DATA FROM ALBUQUERQUE
      AND OTHER STATIONS.  A FINAL VERSION WITH ADDITIONAL DATA IS
      ISSUED ABOUT 10 MINUTES AFTER THE HOUR.

NMZ501-503-504-510>518-191300-
NORTHWEST PLATEAU/NORTHCENTRAL MOUNTAINS

CITY           SKY/WX    TMP DP  RH WIND       PRES   REMARKS
FARMINGTON     FAIR      56  39  53 E7        30.16S
6HR MIN TEMP:  56; 6HR MAX TEMP:  65;

LOS ALAMOS     FAIR      65  45  47 SW3       30.33R
SANTA FE       FAIR      57  47  69 N5        30.26S
6HR MIN TEMP:  56; 6HR MAX TEMP:  71;

TAOS           FAIR      54  43  66 N3        30.35R
ANGEL FIRE     FAIR      40  38  91 CALM      30.44R

$$
NMZ402-403-502-505>509-191300-
WESTCENTRAL MOUNTAINS/SOUTHWEST MOUNTAINS

CITY           SKY/WX    TMP DP  RH WIND       PRES   REMARKS
GALLUP         FAIR      48  28  46 NE6       30.25R
6HR MIN TEMP:  48; 6HR MAX TEMP:  60;

GRANTS         FAIR      53  29  39 NW5       30.28R
SILVER CITY    FAIR      60  52  75 NW6       30.20S

$$
NMZ407-409-411-412-191300-
SOUTHERN DESERTS

CITY           SKY/WX    TMP DP  RH WIND       PRES   REMARKS
DEMING         FAIR      67  56  67 NE6       30.12S
6HR MIN TEMP:  67; 6HR MAX TEMP:  79;

LAS CRUCES     FAIR      66  57  72 CALM      30.16R
HOLLOMAN AFB   MOCLDY    73  56  55 S5        30.15R
ALAMOGORDO     FAIR      68  57  68 E7        30.14S
T OR C         FAIR      71  53  52 SE3       30.15R
6HR MIN TEMP:  71; 6HR MAX TEMP:  81;


$$
NMZ519>523-191300-
CENTRAL VALLEYS/CENTRAL HIGHLANDS

CITY           SKY/WX    TMP DP  RH WIND       PRES   REMARKS
ALBUQUERQUE    MOCLDY    70  51  51 SE7       30.18S
6HR MIN TEMP:  70; 6HR MAX TEMP:  78;

DOUBLE EAGLE   MOCLDY    64  52  63 SE5       30.22
MORIARTY ARPT  FAIR      54  49  85 CALM      30.28S
6HR MIN TEMP:  54; 6HR MAX TEMP:  67;

CLINES CORNERS FAIR      59  45  59 S9        30.33R
6HR MIN TEMP:  58; 6HR MAX TEMP:  64;

BELEN          FAIR      69  50  51 SE7       30.17S
6HR MIN TEMP:  69; 6HR MAX TEMP:  76;

SOCORRO        FAIR      67  52  58 SE7       30.16R
6HR MIN TEMP:  65; 6HR MAX TEMP:  74;


$$
NMZ524>526-539-540-191300-
SOUTHCENTRAL MOUNTAINS

CITY           SKY/WX    TMP DP  RH WIND       PRES   REMARKS
RUIDOSO        CLOUDY    63  48  59 W7        30.32R

$$
NMZ527>531-191300-
NORTHEAST HIGHLANDS/NORTHEAST PLAINS

CITY           SKY/WX    TMP DP  RH WIND       PRES   REMARKS
LAS VEGAS      FAIR      58  47  66 S7        30.30S
6HR MIN TEMP:  54; 6HR MAX TEMP:  65;

RATON          FAIR      55  53  93 NE6       30.25S
6HR MIN TEMP:  54; 6HR MAX TEMP:  65;

CLAYTON        FAIR      62  58  86 W9        30.15S
6HR MIN TEMP:  62; 6HR MAX TEMP:  69;


$$
NMZ532>537-191300-
EASTCENTRAL PLAINS

CITY           SKY/WX    TMP DP  RH WIND       PRES   REMARKS
SANTA ROSA     FAIR      62  52  70 CALM      30.17S
TUCUMCARI      FAIR      66  56  70 CALM      30.10R
6HR MIN TEMP:  65; 6HR MAX TEMP:  73;

CANNON AFB     FAIR      64  64 100 CALM      30.16R
6HR MIN TEMP:  64; 6HR MAX TEMP:  69;

CLOVIS AIRPORT FAIR      63  61  93 CALM      30.15S

$$
NMZ028-029-538-191300-
SOUTHEAST PLAINS

CITY           SKY/WX    TMP DP  RH WIND       PRES   REMARKS
ROSWELL        FAIR      65  63  93 CALM      30.10R
6HR MIN TEMP:  65; 6HR MAX TEMP:  76;

ARTESIA        FAIR      68  64  88 S5        30.09S
CARLSBAD       FAIR      68  66  93 W3        30.07R
6HR MIN TEMP:  67; 6HR MAX TEMP:  74;

HOBBS          PTCLDY    68  63  83 VRB3      30.11R


$$



USA.gov is the U.S. government's official web portal to all federal, state and local government web resources and services.